User: anonymous   Login
Location: Vancouver
(49.2500°N, 123.1330°W)
Time: 22:07:07
(UTC-08:00)
Language:

deb Explorer IX - Orbit

View from above orbital plane
View from above orbital plane
View from above satellite
View from above satellite

Ground track
Ground track

The orbit data is extracted from the following two-line orbital elements,

1    85U 61004C   16337.80024892 +.00004568 +00000-0 +10557-2 0  9990
2    85 038.7742 117.0160 0396696 191.9683 167.1403 14.16694737747433
Epoch (UTC): 02 December 2016 19:12:21
Eccentricity: 0.0396696
inclination: 38.7742°
perigee height: 550 km
apogee height: 1123 km
right ascension of ascending node: 117.0160°
argument of perigee: 191.9683°
revolutions per day: 14.16694737
mean anomaly at epoch: 167.1403°
orbit number at epoch: 74743

The dashed part of the orbit path shows where the satellite is in the earth's shadow,  

DLR